Terminal Aerodrome Forecast
Issued by NWS Shreveport, LA

Home | Current Version | Previous Version | Text Only | Print | Product List | Glossary On
Versions: 1 2 3 4 5 6 7 8 9 10 11 12
000
FTUS44 KSHV 290521
TAFELD
TAF
KELD 290521Z 2906/3006 VRB03KT P6SM BKN150
     FM291200 20005KT P6SM BKN250
     FM292300 13005KT P6SM SCT250=

USA.gov is the U.S. government's official web portal to all federal, state and local government web resources and services.